Flag for Canada Weather past 2 weeks in Thompson, Manitoba, Canada

Now
68 °F

Overcast.


Feels Like: 68 °F
Forecast: N/A
Wind: 9 mph from Northeast

Location: Thompson

Current Time: Aug 29, 2015 at 6:40:38 PM

Latest Report: Aug 29, 2015 at 6:00 PM


Visibility: 15 mi

Pressure: 29.60 "Hg

Humidity: 83%

Dew point: 63 °F

Location of ThompsonLocation

Historic Weather in Thompson — Graph

°F

Thompson temperature yesterday

Maximum temperature yesterday: 77 °F (at 5:00 PM)
Minimum temperature yesterday: 43 °F (at 3:00 AM)
Average temperature yesterday: 60 °F

Past Weeks' High & Low Weather Summary

 TemperatureHumidityPressure
High84 °F (Aug 14, 5:00 PM)100% (Aug 16, 6:00 AM)30.18 "Hg (Aug 16, 6:00 AM)
Low36 °F (Aug 24, 5:00 AM)37% (Aug 24, 6:00 PM)29.60 "Hg (Aug 21, 4:00 AM)
Average56 °F80%29.89 "Hg
* Reported Aug 14 5:00 PM — Aug 29 5:00 PM, Thompson, Weather by CustomWeather, © 2015

Note: Actual official high and low records may vary slightly from our data, if they occured in-between our weather recording intervals... More about our weather records

Advertising

Thompson weather history for previous 24 hours

 ConditionsComfort  
Time TempWeatherWind HumidityBarometerVisibility
5:00 PM
Sat, Aug 29
70 °FMore clouds than sun.7 mph78%29.60 "Hg15 mi
4:00 PM70 °FMore clouds than sun.7 mph73%29.62 "Hg15 mi
3:00 PM70 °FSprinkles. More clouds than sun.7 mph73%29.64 "Hg15 mi
2:00 PM70 °FSprinkles. More clouds than sun.5 mph73%29.65 "Hg10 mi
1:00 PM68 °FOvercast.No wind73%29.67 "Hg10 mi
12:00 PM68 °FMostly cloudy.2 mph73%29.68 "Hg10 mi
11:00 AM66 °FPartly sunny.3 mph73%29.69 "Hg15 mi
10:00 AM64 °FBroken clouds.No wind73%29.70 "Hg15 mi
9:00 AM59 °FScattered clouds.3 mph88%29.71 "Hg15 mi
8:00 AM54 °FPartly sunny.No wind94%29.73 "Hg15 mi
7:00 AM48 °FPassing clouds.2 mph94%29.71 "Hg15 mi
6:00 AM50 °FPassing clouds.No wind94%29.71 "Hg15 mi
5:00 AM50 °FPassing clouds.2 mph100%29.70 "Hg15 mi
4:00 AM52 °FPassing clouds.2 mph94%29.70 "Hg15 mi
3:00 AM52 °FPassing clouds.No wind88%29.71 "Hg15 mi
2:00 AM55 °FPassing clouds.No wind88%29.70 "Hg15 mi
1:00 AM57 °FPassing clouds.2 mph88%29.70 "Hg15 mi
12:00 AM61 °FPassing clouds.6 mph77%29.69 "Hg15 mi
11:00 PM
Fri, Aug 28
66 °FPassing clouds.7 mph64%29.69 "Hg15 mi
10:00 PM63 °FPassing clouds.2 mph77%29.69 "Hg15 mi
9:00 PM66 °FPartly sunny.2 mph73%29.69 "Hg15 mi
8:00 PM70 °FPartly sunny.3 mph64%29.69 "Hg15 mi
7:00 PM75 °FScattered clouds.7 mph57%29.68 "Hg15 mi
6:00 PM75 °FBroken clouds.6 mph57%29.69 "Hg15 mi
Weather by CustomWeather, © 2015

See weather overviewHow to use our weather pages